Regional Weather Roundup
Issued by NWS

Home | Current Version | Previous Version | Text Only | Print | Product List | Glossary Off
Versions: 1 2 3 4 5 6 7 8 9 10 11 12 13 14 15 16 17 18 19 20 21 22 23 24 25 26 27 28 29 30 31 32 33 34 35 36 37 38 39 40 41 42 43 44 45 46 47 48 49 50

000
ASUS45 KTFX 051110
RWRMT
MONTANA REGIONAL WEATHER ROUNDUP
NATIONAL WEATHER SERVICE GREAT FALLS MT
400 AM MST FRI FEB 05 2016

NOTE: "FAIR" INDICATES FEW OR NO CLOUDS BELOW 12000 FEET WITH NO
SIGNIFICANT WEATHER AND/OR OBSTRUCTIONS TO VISIBILITY.

MTZ001>007-043-051200-
WEST OF THE DIVIDE

CITY           SKY/WX    TMP DP  RH WIND       PRES   REMARKS
KALISPELL      MOCLDY    30  24  78 S6        30.37S WCI  24
MISSOULA       PTCLDY    23  20  88 CALM      30.43S
BUTTE          CLOUDY    15  10  80 CALM      30.35R
MULLAN PASS    SNOW      27  23  85 VRB6      30.32S VSB 1/2 WCI  20
ANACONDA         N/A     28  16  59 SW8       30.38R WCI  20
DEER LODGE       N/A     27  19  74 CALM      30.38S
HAMILTON         N/A     30  23  74 S9        30.42S WCI  22
LIBBY            N/A     23  21  93 SE3       30.41S
PLAINS           N/A     25  18  74 CALM      30.40S
$$

MTZ008-052>055-051200-
SOUTHWEST MONTANA

CITY           SKY/WX    TMP DP  RH WIND       PRES   REMARKS
BOZEMAN        CLOUDY    22  15  75 CALM      30.35R
DILLON         CLOUDY    22  12  65 SW16      30.35R WCI   8
ENNIS          CLEAR     19  12  73 S15G22    30.40S WCI   5
THREE FORKS      N/A     25   1  35 CALM      30.29R
TWIN BRIDGES     N/A     17   7  65 E6        30.31R WCI   9
$$

MTZ009-010-012-014-046-048-049-054-051200-
EAST SLOPES AND CENTRAL MONTANA

CITY           SKY/WX    TMP DP  RH WIND       PRES   REMARKS
CUT BANK       CLEAR     32  20  61 W24G33    30.14S WCI  19
GREAT FALLS    CLEAR     27  18  69 SW14      30.21S WCI  16
MALMSTROM AFB  CLEAR     28  20  72 SW15      30.23R WCI  16
HELENA         CLOUDY    34  20  56 W10       30.31R WCI  26
CHOTEAU          N/A     34  18  51 W18       30.20S WCI  23
CONRAD           N/A     29  22  75 S8        30.16R WCI  21
$$

MTZ011-013-016-021-045-047-050-051-051200-
NORTH CENTRAL MONTANA

CITY           SKY/WX    TMP DP  RH WIND       PRES   REMARKS
HAVRE          CLEAR     27  20  75 SW14G20   30.17F WCI  16
LEWISTOWN      CLEAR     23  14  68 W6        30.20S WCI  16
N BAR RANCH      N/A     25  14  63 W6G13     30.20S WCI  18
CHINOOK          N/A     19  18  93 CALM      30.18S
$$

MTZ017>020-022>027-061-062-051200-
NORTHEAST MONTANA

CITY           SKY/WX    TMP DP  RH WIND       PRES   REMARKS
GLASGOW        PTCLDY    17  13  84 NW3       30.17R
JORDAN           N/A     18  15  88 W7        30.17S WCI   9
SIDNEY         CLEAR     19  16  86 NW6       30.17R WCI  11
WOLF POINT     CLEAR     16  12  84 W8        30.18R WCI   5
MALTA            N/A    N/A N/A N/A MISG      30.13
PLENTYWOOD       N/A     18  14  86 W8        30.12S WCI   7
POPLAR           N/A     18  12  79 W6        30.18R WCI   9
SCOBEY           N/A      9   0  67 SW1       30.11R
$$

MTZ028>42-056>058-051200-
SOUTHCENTRAL AND SOUTHEAST MONTANA

CITY           SKY/WX    TMP DP  RH WIND       PRES   REMARKS
BAKER          CLOUDY    28  23  81 NW18      30.13R WCI  15
BILLINGS       CLEAR     32  18  56 W18       30.24R WCI  20
LIVINGSTON     CLOUDY    28  16  60 W15       30.28S WCI  16
MILES CITY     CLEAR     24  22  91 W7        30.19R WCI  16
EKALAKA          N/A     27  23  84 W15       30.08R WCI  15
FORSYTH          N/A     28  27  93 CALM      30.22R
LAUREL           N/A     36  12  37 W17       30.21R WCI  26
ROUNDUP          N/A     32  17  54 SW12      30.11R WCI  23
$$

REGIONAL REPORTS...DAKOTAS

CITY           SKY/WX    TMP DP  RH WIND       PRES   REMARKS
WILLISTON      CLOUDY    18  14  84 NW3       30.15R
MINOT          CLOUDY    24  16  71 W8        30.08R WCI  15
DICKINSON      LGT SNOW  29  27  92 NW14      30.07R FOG     WCI  18
BEACH          CLOUDY    27  27 100 NW15      30.16R WCI  15
CROSBY         MOCLDY    16  16 100 NW9       30.15S WCI   4
TIOGA          CLOUDY    16  16 100 NW9       30.16R WCI   4
WATFORD CITY     N/A     19  16  86 NW5       30.14R
BISMARCK       LGT SNOW  31  27  85 NW3       30.07S FOG
GRAND FORKS    MOCLDY    18  12  77 S10       30.10F WCI   6
FARGO          CLOUDY    18  12  77 S13       30.14S WCI   5
BUFFALO SD       N/A     31  28  89 W20       30.03R WCI  19
RAPID CITY     CLEAR     31  22  69 NW14      30.11R WCI  21
$$

REGIONAL REPORTS...WYOMING/IDAHO/WASHINGTON

CITY           SKY/WX    TMP DP  RH WIND       PRES   REMARKS
GILLETTE       MOCLDY    29  24  82 W14       30.18R WCI  18
SHERIDAN       MOCLDY    31  18  58 NW12      30.22R WCI  22
BUFFALO WY       N/A     29  16  58 MISG      30.18R
CODY           CLEAR     28   9  43 W9        30.25R WCI  20
YELLOWSTONE LA   N/A      8   4  83 CALM      30.34R
IDAHO FALLS    CLOUDY    15  12  88 N7        30.50R FOG     WCI   5
SALMON         CLOUDY    10   9  92 CALM      30.51R
BOISE          CLOUDY    32  31  96 E3        30.53S FOG
SPOKANE        CLOUDY    33  31  92 CALM      30.42R FOG
$$

REGIONAL REPORTS...ALBERTA

CITY           SKY/WX    TMP DP  RH WIND       PRES   REMARKS
EDMONTON       PTCLDY    21  12  68 SW8       29.92F WCI  12
CALGARY        CLEAR     36  16  44 W12G18    30.00S WCI  27
LETHBRIDGE     CLEAR     37  21  52 W28G35    30.09S WCI  25
MEDICINE HAT   CLEAR     21  18  86 SW10      30.09F WCI  10
WATERTON GATE    N/A     34  18  51 SW23G39     N/A  WCI  22
CARDSTON         N/A     36  18  48 W14G21      N/A  WCI  27
MILK RIVER       N/A     21  18  86 SW9         N/A  WCI  11
ONEFOUR          N/A     25  18  74 NW12        N/A  WCI  14
$$

REGIONAL REPORTS...SASKATCHEWAN

CITY           SKY/WX    TMP DP  RH WIND       PRES   REMARKS
SWIFT CURRENT  CLEAR     19  16  86 W13       30.05F WCI   7
REGINA         CLOUDY    12  10  92 SW7       30.10S WCI   2
SASKATOON      CLEAR      9   7  92 SW8       30.05F WCI  -4
CYPRESS HILLS    N/A     21  12  68 W2          N/A
VAL MARIE        N/A      7   3  85 NE1         N/A
ROCKGLEN         N/A     14  12  92 W12         N/A  WCI   0
ASSINIBOIA       N/A     16  12  86 S6          N/A  WCI   7
$$



USA.gov is the U.S. government's official web portal to all federal, state and local government web resources and services.